This is the latest recevied weather packets stored in our database for station/object OK1KKY-18. If no packets are shown the sender has not sent any weather packets the latest 10 day(s).
| Time | Temp. | Humidity | Pressure | Rain* | Wind** | Luminosity | Snow |
|---|---|---|---|---|---|---|---|
| 1787657837 | 16.11° C | 63% | 1016.8 hPa | - | - | - | - |
| 1787657237 | 16.11° C | 62% | 1016.9 hPa | - | - | - | - |
| 1787656637 | 16.11° C | 58% | 1017.1 hPa | - | - | - | - |
| 1787656037 | 16.11° C | 59% | 1017.3 hPa | - | - | - | - |
| 1787655437 | 16.11° C | 56% | 1017.4 hPa | - | - | - | - |
| 1787654838 | 16.67° C | 53% | 1017.4 hPa | - | - | - | - |
| 1787654237 | 16.67° C | 53% | 1017.6 hPa | - | - | - | - |
| 1787653641 | 16.67° C | 53% | 1017.7 hPa | - | - | - | - |
| 1787653037 | 17.22° C | 52% | 1017.5 hPa | - | - | - | - |
| 1787652437 | 17.22° C | 50% | 1017.5 hPa | - | - | - | - |
| 1787651837 | 17.22° C | 52% | 1017.5 hPa | - | - | - | - |
| 1787651237 | 16.67° C | 55% | 1017.4 hPa | - | - | - | - |
| 1787650637 | 16.67° C | 52% | 1017.4 hPa | - | - | - | - |
| 1787650040 | 16.11° C | 52% | 1017.6 hPa | - | - | - | - |
| 1787649435 | 16.11° C | 54% | 1017.6 hPa | - | - | - | - |
| 1787648835 | 16.11° C | 55% | 1017.8 hPa | - | - | - | - |
| 1787648235 | 16.11° C | 54% | 1017.9 hPa | - | - | - | - |
| 1787647635 | 16.11° C | 55% | 1017.8 hPa | - | - | - | - |
| 1787647035 | 16.11° C | 53% | 1017.9 hPa | - | - | - | - |
| 1787646435 | 16.11° C | 54% | 1017.8 hPa | - | - | - | - |
| 1787645835 | 15.56° C | 56% | 1017.8 hPa | - | - | - | - |
| 1787645235 | 15.56° C | 57% | 1017.9 hPa | - | - | - | - |
| 1787644635 | 15° C | 56% | 1018 hPa | - | - | - | - |
| 1787644035 | 15° C | 56% | 1017.9 hPa | - | - | - | - |
| 1787643435 | 15.56° C | 57% | 1018 hPa | - | - | - | - |
* Rain since midnight (hover to see other rain measurements)
** Current wind speed in m/s (hover to see current wind gust speed)